Time,TemperatureF,DewpointF,PressureIn,WindDirection,WindDirectionDegrees,WindSpeedMPH,WindSpeedGustMPH,Humidity,HourlyPrecipIn,Conditions,Clouds,dailyrainin,SoftwareType,DateUTC
2013-03-21 00:03:00,48.0,14.0,-100.00,West,275,4.0,11.0,25,-99.99,,,-99.99,,2013-03-21 04:03:00,
2013-03-21 00:13:00,48.0,14.0,-100.00,WNW,295,5.0,9.0,25,-99.99,,,-99.99,,2013-03-21 04:13:00,
2013-03-21 00:23:00,48.0,14.0,-100.00,WNW,285,5.0,9.0,25,-99.99,,,-99.99,,2013-03-21 04:23:00,
2013-03-21 00:33:00,47.0,13.0,-100.00,WNW,285,4.0,8.0,25,-99.99,,,-99.99,,2013-03-21 04:33:00,
2013-03-21 00:43:00,46.0,13.0,-100.00,West,280,5.0,11.0,26,-99.99,,,-99.99,,2013-03-21 04:43:00,
2013-03-21 00:53:00,46.0,14.0,-100.00,WNW,285,5.0,10.0,27,-99.99,,,-99.99,,2013-03-21 04:53:00,
2013-03-21 01:03:00,46.0,14.0,-100.00,WNW,295,6.0,11.0,27,-99.99,,,-99.99,,2013-03-21 05:03:00,
2013-03-21 01:13:00,46.0,14.0,-100.00,WNW,295,6.0,11.0,27,-99.99,,,-99.99,,2013-03-21 05:13:00,
2013-03-21 01:22:00,46.0,14.0,-100.00,WNW,290,7.0,11.0,27,-99.99,,,-99.99,,2013-03-21 05:22:00,
2013-03-21 01:33:00,46.0,14.0,-100.00,NW,310,8.0,15.0,27,-99.99,,,-99.99,,2013-03-21 05:33:00,
2013-03-21 01:44:00,46.0,14.0,-100.00,NW,305,8.0,16.0,27,-99.99,,,-99.99,,2013-03-21 05:44:00,
2013-03-21 01:52:00,47.0,14.0,-100.00,NW,325,9.0,17.0,27,-99.99,,,-99.99,,2013-03-21 05:52:00,
2013-03-21 02:03:00,46.0,14.0,-100.00,NW,305,7.0,14.0,27,-99.99,,,-99.99,,2013-03-21 06:03:00,
2013-03-21 02:12:00,46.0,14.0,-100.00,NW,310,7.0,14.0,27,-99.99,,,-99.99,,2013-03-21 06:12:00,
2013-03-21 02:22:00,46.0,14.0,-100.00,NW,325,9.0,11.0,27,-99.99,,,-99.99,,2013-03-21 06:22:00,
2013-03-21 02:32:00,46.0,14.0,-100.00,NW,325,9.0,11.0,27,-99.99,,,-99.99,,2013-03-21 06:32:00,
2013-03-21 02:42:00,47.0,15.0,-100.00,NNW,330,11.0,16.0,28,-99.99,,,-99.99,,2013-03-21 06:42:00,
2013-03-21 02:52:00,47.0,15.0,-100.00,NNW,340,12.0,18.0,28,-99.99,,,-99.99,,2013-03-21 06:52:00,
2013-03-21 03:02:00,46.0,16.0,-100.00,NNW,335,9.0,19.0,29,-99.99,,,-99.99,,2013-03-21 07:02:00,
2013-03-21 03:13:00,46.0,16.0,-100.00,North,350,13.0,23.0,29,-99.99,,,-99.99,,2013-03-21 07:13:00,
2013-03-21 03:22:00,46.0,17.0,-100.00,NNW,335,13.0,19.0,31,-99.99,,,-99.99,,2013-03-21 07:22:00,
2013-03-21 03:32:00,45.0,17.0,-100.00,NNW,330,15.0,26.0,32,-99.99,,,-99.99,,2013-03-21 07:32:00,
2013-03-21 03:42:00,45.0,18.0,-100.00,NNW,330,11.0,25.0,33,-99.99,,,-99.99,,2013-03-21 07:42:00,
2013-03-21 03:52:00,45.0,18.0,-100.00,NNW,340,11.0,22.0,33,-99.99,,,-99.99,,2013-03-21 07:52:00,
2013-03-21 04:02:00,44.0,17.0,-100.00,NW,325,11.0,20.0,33,-99.99,,,-99.99,,2013-03-21 08:02:00,
2013-03-21 04:13:00,44.0,17.0,-100.00,North,350,14.0,20.0,33,-99.99,,,-99.99,,2013-03-21 08:13:00,
2013-03-21 04:23:00,44.0,16.0,-100.00,NW,315,15.0,19.0,33,-99.99,,,-99.99,,2013-03-21 08:23:00,
2013-03-21 04:33:00,44.0,16.0,-100.00,NW,310,11.0,24.0,33,-99.99,,,-99.99,,2013-03-21 08:33:00,
2013-03-21 04:42:00,43.0,15.0,-100.00,NNW,330,11.0,19.0,32,-99.99,,,-99.99,,2013-03-21 08:42:00,
2013-03-21 04:52:00,43.0,15.0,-100.00,NW,320,12.0,22.0,32,-99.99,,,-99.99,,2013-03-21 08:52:00,
2013-03-21 05:02:00,43.0,16.0,-100.00,NNW,330,11.0,24.0,33,-99.99,,,-99.99,,2013-03-21 09:02:00,
2013-03-21 05:11:00,42.0,15.0,-100.00,NW,315,11.0,23.0,33,-99.99,,,-99.99,,2013-03-21 09:11:00,
2013-03-21 05:22:00,42.0,15.0,-100.00,NNW,340,14.0,21.0,33,-99.99,,,-99.99,,2013-03-21 09:22:00,
2013-03-21 05:33:00,42.0,15.0,-100.00,NNW,330,11.0,17.0,33,-99.99,,,-99.99,,2013-03-21 09:33:00,
2013-03-21 05:43:00,42.0,15.0,-100.00,NW,320,9.0,19.0,33,-99.99,,,-99.99,,2013-03-21 09:43:00,
2013-03-21 05:53:00,41.0,14.0,-100.00,NW,305,10.0,16.0,33,-99.99,,,-99.99,,2013-03-21 09:53:00,
2013-03-21 06:03:00,41.0,15.0,-100.00,NNW,330,13.0,20.0,34,-99.99,,,-99.99,,2013-03-21 10:03:00,
2013-03-21 06:12:00,41.0,15.0,-100.00,NNW,335,7.0,13.0,35,-99.99,,,-99.99,,2013-03-21 10:12:00,
2013-03-21 06:23:00,40.0,16.0,-100.00,NW,305,4.0,9.0,37,-99.99,,,-99.99,,2013-03-21 10:23:00,
2013-03-21 06:34:00,39.0,17.0,-100.00,NW,315,5.0,10.0,39,-99.99,,,-99.99,,2013-03-21 10:34:00,
2013-03-21 06:42:00,39.0,18.0,-100.00,NW,310,5.0,11.0,42,-99.99,,,-99.99,,2013-03-21 10:42:00,
2013-03-21 06:53:00,39.0,19.0,-100.00,WNW,295,7.0,9.0,44,-99.99,,,-99.99,,2013-03-21 10:53:00,
2013-03-21 07:03:00,38.0,19.0,-100.00,WNW,290,6.0,10.0,46,-99.99,,,-99.99,,2013-03-21 11:03:00,
2013-03-21 07:13:00,38.0,20.0,-100.00,NW,310,6.0,11.0,47,-99.99,,,-99.99,,2013-03-21 11:13:00,
2013-03-21 07:22:00,38.0,20.0,-100.00,NW,310,8.0,15.0,47,-99.99,,,-99.99,,2013-03-21 11:22:00,
2013-03-21 07:33:00,38.0,19.0,-100.00,NW,305,8.0,13.0,46,-99.99,,,-99.99,,2013-03-21 11:33:00,
2013-03-21 07:43:00,38.0,19.0,-100.00,NW,310,9.0,15.0,46,-99.99,,,-99.99,,2013-03-21 11:43:00,
2013-03-21 07:52:00,38.0,18.0,-100.00,NW,315,5.0,13.0,45,-99.99,,,-99.99,,2013-03-21 11:52:00,
2013-03-21 08:03:00,38.0,18.0,-100.00,NW,305,6.0,15.0,45,-99.99,,,-99.99,,2013-03-21 12:03:00,
2013-03-21 08:12:00,37.0,18.0,-100.00,WNW,290,5.0,8.0,45,-99.99,,,-99.99,,2013-03-21 12:12:00,
2013-03-21 08:22:00,37.0,18.0,-100.00,NW,320,6.0,11.0,44,-99.99,,,-99.99,,2013-03-21 12:22:00,
2013-03-21 08:33:00,38.0,17.0,-100.00,NW,310,7.0,12.0,43,-99.99,,,-99.99,,2013-03-21 12:33:00,
2013-03-21 08:43:00,38.0,16.0,-100.00,WNW,300,11.0,25.0,40,-99.99,,,-99.99,,2013-03-21 12:43:00,
2013-03-21 08:52:00,39.0,16.0,-100.00,NW,310,13.0,19.0,38,-99.99,,,-99.99,,2013-03-21 12:52:00,
2013-03-21 09:03:00,40.0,16.0,-100.00,NNW,330,9.0,26.0,37,-99.99,,,-99.99,,2013-03-21 13:03:00,
2013-03-21 09:12:00,40.0,16.0,-100.00,NW,325,9.0,18.0,37,-99.99,,,-99.99,,2013-03-21 13:12:00,
2013-03-21 09:22:00,41.0,16.0,-100.00,NW,310,6.0,16.0,37,-99.99,,,-99.99,,2013-03-21 13:22:00,
2013-03-21 09:32:00,41.0,17.0,-100.00,NW,320,11.0,18.0,37,-99.99,,,-99.99,,2013-03-21 13:32:00,
2013-03-21 09:42:00,41.0,17.0,-100.00,WNW,290,15.0,22.0,37,-99.99,,,-99.99,,2013-03-21 13:42:00,
2013-03-21 09:52:00,41.0,17.0,-100.00,NW,325,9.0,19.0,37,-99.99,,,-99.99,,2013-03-21 13:52:00,
2013-03-21 10:02:00,41.0,17.0,-100.00,NW,325,13.0,21.0,37,-99.99,,,-99.99,,2013-03-21 14:02:00,
2013-03-21 10:12:00,41.0,13.0,-100.00,NW,325,14.0,26.0,32,-99.99,,,-99.99,,2013-03-21 14:12:00,
2013-03-21 10:22:00,41.0,13.0,-100.00,WNW,300,15.0,23.0,31,-99.99,,,-99.99,,2013-03-21 14:22:00,
2013-03-21 10:32:00,42.0,13.0,-100.00,WNW,300,6.0,23.0,31,-99.99,,,-99.99,,2013-03-21 14:32:00,
2013-03-21 10:42:00,42.0,13.0,-100.00,NNW,335,13.0,20.0,30,-99.99,,,-99.99,,2013-03-21 14:42:00,
2013-03-21 10:52:00,43.0,13.0,-100.00,NW,305,6.0,19.0,30,-99.99,,,-99.99,,2013-03-21 14:52:00,
2013-03-21 11:04:00,43.0,13.0,-100.00,NW,320,12.0,20.0,29,-99.99,,,-99.99,,2013-03-21 15:04:00,
2013-03-21 11:12:00,43.0,13.0,-100.00,NW,305,14.0,26.0,29,-99.99,,,-99.99,,2013-03-21 15:12:00,
2013-03-21 11:22:00,44.0,13.0,-100.00,NW,305,15.0,20.0,28,-99.99,,,-99.99,,2013-03-21 15:22:00,
2013-03-21 11:33:00,44.0,13.0,-100.00,WNW,295,11.0,19.0,28,-99.99,,,-99.99,,2013-03-21 15:33:00,
2013-03-21 11:42:00,44.0,12.0,-100.00,NW,315,11.0,23.0,27,-99.99,,,-99.99,,2013-03-21 15:42:00,
2013-03-21 11:53:00,44.0,12.0,-100.00,NNW,330,11.0,21.0,27,-99.99,,,-99.99,,2013-03-21 15:53:00,
2013-03-21 12:03:00,45.0,11.0,-100.00,NNW,335,15.0,26.0,25,-99.99,,,-99.99,,2013-03-21 16:03:00,
2013-03-21 12:12:00,44.0,10.0,-100.00,North,350,15.0,22.0,24,-99.99,,,-99.99,,2013-03-21 16:12:00,
2013-03-21 12:23:00,45.0,9.0,-100.00,North,355,11.0,23.0,22,-99.99,,,-99.99,,2013-03-21 16:23:00,
2013-03-21 12:33:00,46.0,8.0,-100.00,NW,315,16.0,24.0,21,-99.99,,,-99.99,,2013-03-21 16:33:00,
2013-03-21 12:42:00,47.0,9.0,-100.00,NW,320,11.0,24.0,21,-99.99,,,-99.99,,2013-03-21 16:42:00,
2013-03-21 12:52:00,48.0,9.0,-100.00,WNW,295,11.0,23.0,20,-99.99,,,-99.99,,2013-03-21 16:52:00,
2013-03-21 13:03:00,49.0,8.0,-100.00,West,280,7.0,20.0,19,-99.99,,,-99.99,,2013-03-21 17:03:00,
2013-03-21 13:12:00,51.0,10.0,-100.00,WNW,285,11.0,19.0,19,-99.99,,,-99.99,,2013-03-21 17:12:00,
2013-03-21 13:23:00,50.0,7.0,-100.00,West,270,15.0,26.0,17,-99.99,,,-99.99,,2013-03-21 17:23:00,
2013-03-21 13:33:00,49.0,5.0,-100.00,NW,305,14.0,26.0,16,-99.99,,,-99.99,,2013-03-21 17:33:00,
2013-03-21 13:43:00,51.0,6.0,-100.00,WNW,285,17.0,25.0,16,-99.99,,,-99.99,,2013-03-21 17:43:00,
2013-03-21 13:52:00,51.0,7.0,-100.00,West,270,14.0,21.0,16,-99.99,,,-99.99,,2013-03-21 17:52:00,
2013-03-21 14:02:00,49.0,4.0,-100.00,NW,325,14.0,26.0,15,-99.99,,,-99.99,,2013-03-21 18:02:00,
2013-03-21 14:12:00,52.0,6.0,-100.00,WNW,285,14.0,24.0,15,-99.99,,,-99.99,,2013-03-21 18:12:00,
2013-03-21 14:23:00,53.0,6.0,-100.00,West,270,19.0,26.0,15,-99.99,,,-99.99,,2013-03-21 18:23:00,
2013-03-21 14:32:00,53.0,6.0,-100.00,NW,315,9.0,21.0,15,-99.99,,,-99.99,,2013-03-21 18:32:00,
2013-03-21 14:42:00,50.0,3.0,-100.00,NNW,335,14.0,21.0,14,-99.99,,,-99.99,,2013-03-21 18:42:00,
2013-03-21 14:52:00,53.0,5.0,-100.00,WNW,285,14.0,23.0,14,-99.99,,,-99.99,,2013-03-21 18:52:00,
2013-03-21 15:02:00,53.0,5.0,-100.00,NW,310,14.0,29.0,14,-99.99,,,-99.99,,2013-03-21 19:02:00,
2013-03-21 15:12:00,55.0,8.0,-100.00,West,270,12.0,21.0,15,-99.99,,,-99.99,,2013-03-21 19:12:00,
2013-03-21 15:23:00,54.0,8.0,-100.00,WNW,285,15.0,26.0,15,-99.99,,,-99.99,,2013-03-21 19:23:00,
2013-03-21 15:32:00,54.0,8.0,-100.00,West,260,13.0,24.0,15,-99.99,,,-99.99,,2013-03-21 19:32:00,
2013-03-21 15:43:00,54.0,8.0,-100.00,NW,310,9.0,24.0,15,-99.99,,,-99.99,,2013-03-21 19:43:00,
2013-03-21 15:52:00,54.0,7.0,-100.00,NNW,330,15.0,25.0,15,-99.99,,,-99.99,,2013-03-21 19:52:00,
2013-03-21 16:02:00,55.0,8.0,-100.00,WNW,285,14.0,21.0,15,-99.99,,,-99.99,,2013-03-21 20:02:00,
2013-03-21 16:13:00,55.0,8.0,-100.00,NNW,330,8.0,18.0,15,-99.99,,,-99.99,,2013-03-21 20:13:00,
2013-03-21 16:23:00,55.0,7.0,-100.00,West,280,12.0,26.0,14,-99.99,,,-99.99,,2013-03-21 20:23:00,
2013-03-21 16:33:00,55.0,7.0,-100.00,West,280,12.0,26.0,14,-99.99,,,-99.99,,2013-03-21 20:33:00,
2013-03-21 16:42:00,55.0,8.0,-100.00,West,270,14.0,21.0,15,-99.99,,,-99.99,,2013-03-21 20:42:00,
2013-03-21 16:53:00,53.0,7.0,-100.00,NW,315,14.0,27.0,15,-99.99,,,-99.99,,2013-03-21 20:53:00,
2013-03-21 17:03:00,53.0,7.0,-100.00,NW,315,14.0,28.0,15,-99.99,,,-99.99,,2013-03-21 21:03:00,
2013-03-21 17:12:00,55.0,8.0,-100.00,West,280,9.0,19.0,15,-99.99,,,-99.99,,2013-03-21 21:12:00,
2013-03-21 17:23:00,54.0,8.0,-100.00,WNW,285,15.0,23.0,15,-99.99,,,-99.99,,2013-03-21 21:23:00,
2013-03-21 17:33:00,54.0,8.0,-100.00,WNW,285,15.0,23.0,15,-99.99,,,-99.99,,2013-03-21 21:33:00,
2013-03-21 17:43:00,54.0,8.0,-100.00,NW,310,11.0,17.0,15,-99.99,,,-99.99,,2013-03-21 21:43:00,
2013-03-21 17:53:00,54.0,8.0,-100.00,West,270,9.0,21.0,15,-99.99,,,-99.99,,2013-03-21 21:53:00,
2013-03-21 18:03:00,53.0,6.0,-100.00,NNW,335,11.0,19.0,15,-99.99,,,-99.99,,2013-03-21 22:03:00,
2013-03-21 18:13:00,53.0,6.0,-100.00,NW,325,9.0,21.0,15,-99.99,,,-99.99,,2013-03-21 22:13:00,
2013-03-21 18:23:00,54.0,7.0,-100.00,NW,320,9.0,19.0,15,-99.99,,,-99.99,,2013-03-21 22:23:00,
2013-03-21 18:33:00,53.0,6.0,-100.00,North,355,14.0,24.0,15,-99.99,,,-99.99,,2013-03-21 22:33:00,
2013-03-21 18:42:00,53.0,6.0,-100.00,NW,315,10.0,24.0,15,-99.99,,,-99.99,,2013-03-21 22:42:00,
2013-03-21 18:52:00,52.0,6.0,-100.00,NNW,330,12.0,18.0,15,-99.99,,,-99.99,,2013-03-21 22:52:00,
2013-03-21 19:02:00,52.0,6.0,-100.00,NNW,340,10.0,20.0,15,-99.99,,,-99.99,,2013-03-21 23:02:00,
2013-03-21 19:12:00,51.0,5.0,-100.00,NNW,330,14.0,20.0,15,-99.99,,,-99.99,,2013-03-21 23:12:00,
2013-03-21 19:22:00,51.0,5.0,-100.00,NW,325,7.0,17.0,15,-99.99,,,-99.99,,2013-03-21 23:22:00,
2013-03-21 19:33:00,51.0,6.0,-100.00,NW,325,11.0,17.0,16,-99.99,,,-99.99,,2013-03-21 23:33:00,
2013-03-21 19:43:00,50.0,6.0,-100.00,WNW,295,8.0,17.0,16,-99.99,,,-99.99,,2013-03-21 23:43:00,
2013-03-21 19:52:00,50.0,7.0,-100.00,NW,310,9.0,16.0,17,-99.99,,,-99.99,,2013-03-21 23:52:00,
2013-03-21 20:03:00,49.0,6.0,-100.00,NW,310,4.0,14.0,17,-99.99,,,-99.99,,2013-03-22 00:03:00,
2013-03-21 20:22:00,47.0,6.0,-100.00,NW,315,4.0,8.0,18,-99.99,,,-99.99,,2013-03-22 00:22:00,
2013-03-21 20:32:00,47.0,6.0,-100.00,NW,315,4.0,8.0,18,-99.99,,,-99.99,,2013-03-22 00:32:00,
2013-03-21 20:42:00,46.0,6.0,-100.00,NW,305,6.0,9.0,19,-99.99,,,-99.99,,2013-03-22 00:42:00,
2013-03-21 20:52:00,46.0,6.0,-100.00,NW,305,5.0,10.0,19,-99.99,,,-99.99,,2013-03-22 00:52:00,
2013-03-21 21:03:00,45.0,6.0,-100.00,WSW,255,1.0,7.0,20,-99.99,,,-99.99,,2013-03-22 01:03:00,
2013-03-21 21:12:00,44.0,7.0,-100.00,WNW,285,5.0,7.0,21,-99.99,,,-99.99,,2013-03-22 01:12:00,
2013-03-21 21:22:00,44.0,7.0,-100.00,WNW,300,4.0,8.0,22,-99.99,,,-99.99,,2013-03-22 01:22:00,
2013-03-21 21:32:00,44.0,7.0,-100.00,NW,310,4.0,9.0,22,-99.99,,,-99.99,,2013-03-22 01:32:00,
2013-03-21 21:43:00,44.0,8.0,-100.00,WNW,295,5.0,9.0,23,-99.99,,,-99.99,,2013-03-22 01:43:00,
2013-03-21 21:53:00,43.0,8.0,-100.00,WNW,285,4.0,7.0,23,-99.99,,,-99.99,,2013-03-22 01:53:00,
2013-03-21 22:03:00,43.0,8.0,-100.00,NW,305,4.0,7.0,24,-99.99,,,-99.99,,2013-03-22 02:03:00,
2013-03-21 22:12:00,42.0,8.0,-100.00,NW,325,4.0,7.0,24,-99.99,,,-99.99,,2013-03-22 02:12:00,
2013-03-21 22:22:00,42.0,9.0,-100.00,NW,305,4.0,6.0,25,-99.99,,,-99.99,,2013-03-22 02:22:00,
2013-03-21 22:32:00,41.0,9.0,-100.00,WNW,300,2.0,6.0,26,-99.99,,,-99.99,,2013-03-22 02:32:00,
2013-03-21 22:43:00,41.0,10.0,-100.00,WNW,295,2.0,4.0,27,-99.99,,,-99.99,,2013-03-22 02:43:00,
2013-03-21 22:52:00,40.0,10.0,-100.00,WNW,300,3.0,5.0,28,-99.99,,,-99.99,,2013-03-22 02:52:00,
2013-03-21 23:02:00,41.0,11.0,-100.00,NW,320,4.0,5.0,28,-99.99,,,-99.99,,2013-03-22 03:02:00,
2013-03-21 23:12:00,41.0,11.0,-100.00,WNW,300,4.0,6.0,29,-99.99,,,-99.99,,2013-03-22 03:12:00,
2013-03-21 23:22:00,40.0,10.0,-100.00,NW,305,4.0,6.0,29,-99.99,,,-99.99,,2013-03-22 03:22:00,
2013-03-21 23:33:00,40.0,11.0,-100.00,NW,310,3.0,4.0,30,-99.99,,,-99.99,,2013-03-22 03:33:00,
2013-03-21 23:43:00,39.0,11.0,-100.00,WNW,290,4.0,6.0,31,-99.99,,,-99.99,,2013-03-22 03:43:00,
2013-03-21 23:53:00,38.0,11.0,-100.00,WNW,300,5.0,7.0,33,-99.99,,,-99.99,,2013-03-22 03:53:00,